KAL2156 RJFT-RKSI

Flight info

Callsign KAL2156
Flight time 0h 41m
Altitude 30000
Route KUE Y40 TAIME Y14 DGC G339 BEETL Y208 INVOK Z91 PSN Y782 BITUX Z53 BASEM Y685 GUKDO GUKDO2E
Aircraft A333/H-SDE3GHIJ2J3J5M1RVWXY/LB2D1

Departure

Time 2026-04-19 05:43
Airport Kumamoto Airport (RJFT)

Arrival

Time 2026-04-19 06:25
Airport Incheon International Airport (RKSI)
Time Latitude Longitude Altitude Speed Heading
2026-04-19 05:18 32.83587 130.85951 648 ft 0 kts 154°
2026-04-19 05:35 32.83606 130.85941 648 ft 4 kts 157°
2026-04-19 05:35 32.83633 130.85929 648 ft 4 kts 162°
2026-04-19 05:35 32.83659 130.85920 649 ft 4 kts 168°
2026-04-19 05:35 32.83685 130.85915 648 ft 4 kts 179°
2026-04-19 05:36 32.83710 130.85920 649 ft 4 kts 216°
2026-04-19 05:36 32.83719 130.85931 648 ft 1 kts 244°
2026-04-19 05:36 32.83720 130.85933 648 ft 0 kts 244°
2026-04-19 05:38 32.83717 130.85926 648 ft 2 kts 244°
2026-04-19 05:38 32.83707 130.85899 648 ft 5 kts 244°
2026-04-19 05:38 32.83692 130.85861 648 ft 6 kts 244°
2026-04-19 05:38 32.83672 130.85813 649 ft 8 kts 244°
2026-04-19 05:39 32.83641 130.85734 649 ft 13 kts 244°
2026-04-19 05:39 32.83599 130.85630 647 ft 15 kts 244°
2026-04-19 05:39 32.83552 130.85510 647 ft 16 kts 244°
2026-04-19 05:39 32.83501 130.85384 645 ft 18 kts 244°
2026-04-19 05:40 32.83442 130.85240 648 ft 21 kts 244°
2026-04-19 05:40 32.83376 130.85075 643 ft 23 kts 244°
2026-04-19 05:40 32.83300 130.84886 640 ft 26 kts 245°
2026-04-19 05:40 32.83226 130.84697 637 ft 25 kts 245°
2026-04-19 05:41 32.83151 130.84506 625 ft 25 kts 243°
2026-04-19 05:41 32.83078 130.84333 632 ft 15 kts 244°
2026-04-19 05:41 32.83037 130.84231 631 ft 12 kts 247°
2026-04-19 05:41 32.83050 130.84139 620 ft 13 kts 314°
2026-04-19 05:42 32.83128 130.84088 615 ft 10 kts 341°
2026-04-19 05:42 32.83175 130.84118 628 ft 7 kts 66°
2026-04-19 05:42 32.83178 130.84125 628 ft 0 kts 66°
2026-04-19 05:42 32.83179 130.84128 628 ft 8 kts 66°
2026-04-19 05:43 32.83300 130.84433 631 ft 72 kts 64°
2026-04-19 05:43 32.83601 130.85171 648 ft 125 kts 64°
2026-04-19 05:43 32.84040 130.86266 672 ft 166 kts 63°
2026-04-19 05:43 32.84508 130.87496 1344 ft 157 kts 64°
2026-04-19 05:44 32.85096 130.88501 2219 ft 141 kts 39°
2026-04-19 05:44 32.86004 130.88643 2966 ft 139 kts 332°
2026-04-19 05:44 32.86614 130.87677 3166 ft 164 kts 287°
2026-04-19 05:44 32.86714 130.86264 3348 ft 184 kts 257°
2026-04-19 05:45 32.86130 130.84887 3609 ft 193 kts 216°
2026-04-19 05:45 32.84910 130.84236 3983 ft 199 kts 191°
2026-04-19 05:45 32.83523 130.83751 4326 ft 220 kts 196°
2026-04-19 05:45 32.82042 130.82935 4680 ft 247 kts 204°
2026-04-19 05:46 32.80533 130.81905 5357 ft 257 kts 207°
2026-04-19 05:46 32.78996 130.80790 6229 ft 260 kts 209°
2026-04-19 05:46 32.77450 130.79648 7125 ft 262 kts 210°
2026-04-19 05:46 32.75908 130.78503 8323 ft 260 kts 212°
2026-04-19 05:47 32.74372 130.77363 9314 ft 263 kts 213°
2026-04-19 05:47 32.72811 130.76200 10150 ft 267 kts 214°
2026-04-19 05:47 32.71188 130.74990 10591 ft 285 kts 213°
2026-04-19 05:47 32.69440 130.73685 10910 ft 306 kts 213°
2026-04-19 05:48 32.67633 130.72241 11509 ft 318 kts 218°
2026-04-19 05:48 32.66072 130.70371 12525 ft 322 kts 231°
2026-04-19 05:48 32.64992 130.67994 13288 ft 337 kts 251°
2026-04-19 05:48 32.64728 130.66398 13768 ft 343 kts 264°
2026-04-19 05:49 32.65032 130.63607 14519 ft 353 kts 286°
2026-04-19 05:49 32.65764 130.61869 14953 ft 361 kts 301°
2026-04-19 05:49 32.71084 130.57260 16933 ft 378 kts 325°
2026-04-19 05:49 32.75715 130.54152 18159 ft 386 kts 327°
2026-04-19 05:50 32.80466 130.51047 19228 ft 393 kts 327°
2026-04-19 05:50 32.83710 130.48882 19948 ft 397 kts 327°
2026-04-19 05:50 32.90896 130.46536 21355 ft 415 kts 350°
2026-04-19 05:50 32.94731 130.46076 22004 ft 421 kts 352°
2026-04-19 05:51 33.00628 130.45529 22990 ft 427 kts 353°
2026-04-19 05:51 33.06567 130.44880 23890 ft 430 kts 347°
2026-04-19 05:51 33.12222 130.42561 24624 ft 432 kts 335°
2026-04-19 05:51 33.17797 130.39792 25394 ft 435 kts 332°
2026-04-19 05:52 33.23377 130.36847 26139 ft 440 kts 330°
2026-04-19 05:52 33.28942 130.33923 26868 ft 446 kts 331°
2026-04-19 05:52 33.34674 130.30948 27746 ft 451 kts 331°
2026-04-19 05:52 33.40479 130.27936 28499 ft 456 kts 330°
2026-04-19 05:53 33.46332 130.24896 29294 ft 460 kts 330°
2026-04-19 05:53 33.52252 130.21814 29816 ft 468 kts 330°
2026-04-19 05:53 33.58196 130.18727 29922 ft 458 kts 330°
2026-04-19 05:54 33.69691 130.12733 29942 ft 449 kts 330°
2026-04-19 05:54 33.81231 130.06668 29942 ft 470 kts 330°
2026-04-19 05:54 33.87338 130.03453 29935 ft 488 kts 331°
2026-04-19 05:55 33.93670 130.00122 29955 ft 505 kts 331°
2026-04-19 05:55 34.00218 129.96681 29977 ft 519 kts 332°
2026-04-19 05:55 34.06909 129.93161 29970 ft 523 kts 332°
2026-04-19 05:56 34.20146 129.86170 29978 ft 522 kts 332°
2026-04-19 05:56 34.26641 129.82319 29971 ft 514 kts 321°
2026-04-19 05:56 34.32343 129.77154 29977 ft 511 kts 317°
2026-04-19 05:57 34.43419 129.66526 29987 ft 509 kts 317°
2026-04-19 05:57 34.54519 129.55843 29976 ft 509 kts 317°
2026-04-19 05:58 34.65621 129.45137 29979 ft 510 kts 317°
2026-04-19 05:58 34.76733 129.34385 29992 ft 510 kts 318°
2026-04-19 05:59 34.87871 129.23619 29980 ft 510 kts 318°
2026-04-19 05:59 34.98918 129.12923 29980 ft 510 kts 319°
2026-04-19 06:00 35.10065 129.02095 29976 ft 510 kts 320°
2026-04-19 06:00 35.16179 128.97670 29994 ft 514 kts 331°
2026-04-19 06:00 35.22628 128.93787 29992 ft 515 kts 332°
2026-04-19 06:01 35.35458 128.86246 29984 ft 513 kts 333°
2026-04-19 06:01 35.48321 128.78616 29964 ft 511 kts 333°
2026-04-19 06:02 35.61116 128.70986 29956 ft 510 kts 333°
2026-04-19 06:02 35.73806 128.63393 29951 ft 508 kts 333°
2026-04-19 06:03 35.86518 128.55734 29965 ft 508 kts 333°
2026-04-19 06:03 35.99186 128.47991 29960 ft 507 kts 333°
2026-04-19 06:04 36.11849 128.40237 29955 ft 507 kts 333°
2026-04-19 06:04 36.24264 128.32610 29954 ft 477 kts 333°
2026-04-19 06:04 36.29994 128.29080 29949 ft 444 kts 333°
2026-04-19 06:05 36.35416 128.25732 29954 ft 431 kts 333°
2026-04-19 06:05 36.46311 128.18991 29914 ft 444 kts 333°
2026-04-19 06:05 36.51465 128.15798 29299 ft 451 kts 334°
2026-04-19 06:06 36.54291 128.14044 28367 ft 456 kts 334°
2026-04-19 06:06 36.57156 128.12265 27413 ft 462 kts 333°
2026-04-19 06:06 36.60037 128.10473 26684 ft 462 kts 333°
2026-04-19 06:06 36.62904 128.08689 26099 ft 457 kts 333°
2026-04-19 06:07 36.65740 128.06922 25538 ft 453 kts 333°
2026-04-19 06:07 36.68544 128.05173 24936 ft 450 kts 333°
2026-04-19 06:07 36.71309 128.03449 24337 ft 447 kts 333°
2026-04-19 06:07 36.74092 128.01713 23632 ft 448 kts 333°
2026-04-19 06:08 36.76879 127.99970 22930 ft 446 kts 334°
2026-04-19 06:08 36.79636 127.98244 22377 ft 439 kts 334°
2026-04-19 06:08 36.82345 127.96461 21706 ft 438 kts 328°
2026-04-19 06:08 36.84662 127.94097 21200 ft 433 kts 314°
2026-04-19 06:09 36.86650 127.91288 20532 ft 432 kts 310°
2026-04-19 06:09 36.88475 127.88325 19950 ft 429 kts 307°
2026-04-19 06:09 36.90192 127.85299 19425 ft 424 kts 306°
2026-04-19 06:09 36.91857 127.82258 18903 ft 420 kts 306°
2026-04-19 06:10 36.93492 127.79246 18382 ft 417 kts 306°
2026-04-19 06:10 36.95130 127.76262 17821 ft 414 kts 306°
2026-04-19 06:10 36.96742 127.73353 17293 ft 409 kts 306°
2026-04-19 06:10 36.98363 127.70442 16752 ft 405 kts 306°
2026-04-19 06:11 36.99969 127.67569 16249 ft 400 kts 306°
2026-04-19 06:11 37.01453 127.64682 15964 ft 391 kts 298°
2026-04-19 06:11 37.02368 127.61516 15736 ft 384 kts 284°
2026-04-19 06:12 37.03440 127.54956 15246 ft 383 kts 281°
2026-04-19 06:12 37.03941 127.51676 14986 ft 381 kts 281°
2026-04-19 06:12 37.04438 127.48459 14762 ft 379 kts 281°
2026-04-19 06:12 37.04941 127.45222 14512 ft 377 kts 281°
2026-04-19 06:13 37.05442 127.42005 14270 ft 375 kts 281°
2026-04-19 06:13 37.05940 127.38807 14038 ft 373 kts 281°
2026-04-19 06:13 37.06437 127.35630 13802 ft 371 kts 281°
2026-04-19 06:13 37.06931 127.32454 13547 ft 369 kts 281°
2026-04-19 06:14 37.07415 127.29339 13283 ft 367 kts 281°
2026-04-19 06:14 37.07903 127.26200 13031 ft 366 kts 281°
2026-04-19 06:14 37.08387 127.23079 12766 ft 364 kts 281°
2026-04-19 06:14 37.08941 127.19997 12513 ft 358 kts 285°
2026-04-19 06:15 37.09599 127.17032 12251 ft 347 kts 286°
2026-04-19 06:15 37.10266 127.14167 12011 ft 338 kts 287°
2026-04-19 06:15 37.10937 127.11378 11744 ft 330 kts 287°
2026-04-19 06:15 37.11605 127.08664 11487 ft 322 kts 287°
2026-04-19 06:16 37.12267 127.06011 11242 ft 316 kts 287°
2026-04-19 06:16 37.12914 127.03412 10992 ft 309 kts 287°
2026-04-19 06:16 37.13548 127.00849 10749 ft 306 kts 287°
2026-04-19 06:16 37.14168 126.98340 10497 ft 305 kts 287°
2026-04-19 06:17 37.14801 126.95774 10262 ft 304 kts 287°
2026-04-19 06:17 37.15414 126.93278 10033 ft 303 kts 286°
2026-04-19 06:17 37.16035 126.90750 9795 ft 303 kts 286°
2026-04-19 06:17 37.16650 126.88235 9535 ft 301 kts 286°
2026-04-19 06:18 37.17266 126.85716 9280 ft 300 kts 286°
2026-04-19 06:18 37.17876 126.83218 9023 ft 299 kts 286°
2026-04-19 06:18 37.18487 126.80715 8782 ft 299 kts 286°
2026-04-19 06:18 37.19096 126.78219 8411 ft 298 kts 286°
2026-04-19 06:19 37.19701 126.75740 8037 ft 296 kts 286°
2026-04-19 06:19 37.20294 126.73303 7690 ft 295 kts 286°
2026-04-19 06:19 37.20888 126.70858 7333 ft 293 kts 286°
2026-04-19 06:19 37.21482 126.68414 6971 ft 291 kts 286°
2026-04-19 06:20 37.22072 126.65984 6611 ft 290 kts 286°
2026-04-19 06:20 37.22809 126.63642 6259 ft 289 kts 300°
2026-04-19 06:20 37.24048 126.61675 5868 ft 287 kts 316°
2026-04-19 06:20 37.25611 126.60133 5500 ft 285 kts 325°
2026-04-19 06:21 37.27237 126.58715 5138 ft 284 kts 325°
2026-04-19 06:21 37.28857 126.57297 4771 ft 282 kts 325°
2026-04-19 06:21 37.30433 126.55923 4395 ft 275 kts 325°
2026-04-19 06:21 37.31965 126.54589 3947 ft 260 kts 325°
2026-04-19 06:22 37.33397 126.53335 3485 ft 241 kts 324°
2026-04-19 06:22 37.34727 126.52163 3004 ft 225 kts 324°
2026-04-19 06:22 37.35970 126.51057 2495 ft 214 kts 324°
2026-04-19 06:22 37.37159 126.49994 2000 ft 205 kts 323°
2026-04-19 06:23 37.38298 126.48976 1625 ft 194 kts 323°
2026-04-19 06:23 37.39323 126.48062 1497 ft 171 kts 323°
2026-04-19 06:23 37.40241 126.47244 1499 ft 153 kts 323°
2026-04-19 06:23 37.41118 126.46459 1114 ft 156 kts 322°
2026-04-19 06:24 37.41985 126.45684 813 ft 151 kts 322°
2026-04-19 06:24 37.42829 126.44928 518 ft 145 kts 322°
2026-04-19 06:24 37.43661 126.44205 218 ft 140 kts 322°
2026-04-19 06:24 37.44427 126.43551 50 ft 124 kts 316°
2026-04-19 06:25 37.45007 126.42998 37 ft 78 kts 325°
2026-04-19 06:25 37.45290 126.42751 37 ft 27 kts 325°
2026-04-19 06:25 37.45442 126.42620 37 ft 26 kts 326°
2026-04-19 06:25 37.45591 126.42502 37 ft 25 kts 336°
2026-04-19 06:26 37.45744 126.42442 37 ft 18 kts 351°
2026-04-19 06:26 37.45818 126.42518 37 ft 15 kts 91°
2026-04-19 06:26 37.45752 126.42611 37 ft 15 kts 142°
2026-04-19 06:26 37.45667 126.42690 37 ft 16 kts 145°
2026-04-19 06:27 37.45629 126.42789 37 ft 13 kts 58°
2026-04-19 06:27 37.45674 126.42869 37 ft 11 kts 54°
2026-04-19 06:27 37.45721 126.42954 37 ft 13 kts 55°
2026-04-19 06:27 37.45774 126.43050 37 ft 14 kts 56°
2026-04-19 06:28 37.45809 126.43169 37 ft 15 kts 74°
2026-04-19 06:28 37.45865 126.43286 36 ft 16 kts 54°
2026-04-19 06:28 37.45933 126.43407 36 ft 18 kts 54°
2026-04-19 06:28 37.46007 126.43540 36 ft 19 kts 55°
2026-04-19 06:29 37.46088 126.43682 36 ft 20 kts 54°
2026-04-19 06:29 37.46169 126.43825 36 ft 15 kts 54°
2026-04-19 06:29 37.46239 126.43906 36 ft 13 kts 360°
2026-04-19 06:29 37.46320 126.43851 36 ft 14 kts 325°
2026-04-19 06:30 37.46404 126.43778 36 ft 15 kts 325°
2026-04-19 06:30 37.46493 126.43699 36 ft 16 kts 324°
2026-04-19 06:30 37.46553 126.43620 36 ft 10 kts 270°
2026-04-19 06:30 37.46520 126.43535 36 ft 11 kts 237°
2026-04-19 06:31 37.46513 126.43496 36 ft 3 kts 293°
2026-04-19 06:31 37.46528 126.43471 36 ft 4 kts 309°
2026-04-19 06:31 37.46546 126.43448 36 ft 3 kts 315°
2026-04-19 06:31 37.46559 126.43433 36 ft 2 kts 316°
2026-04-19 06:32 37.46568 126.43423 36 ft 2 kts 317°
2026-04-19 06:32 37.46573 126.43417 36 ft 0 kts 317°